Regional Weather Roundup
Issued by NWS Memphis, TN

Home | Current Version | Previous Version | Text Only | Print | Product List | Glossary On
Versions: 1 2 3 4 5 6 7 8 9 10 11 12 13 14 15 16 17 18 19 20 21 22 23 24 25 26 27 28 29 30 31 32 33 34 35 36 37 38 39 40 41 42 43 44 45 46 47 48 49 50
000
ASUS44 KMEG 241510
RWRMEG
MEMPHIS CWA HOURLY WEATHER ROUNDUP
NATIONAL WEATHER SERVICE MEMPHIS TN
1000 AM CDT THU APR 24 2014

...WEST TENNESSEE...

CITY           SKY/WX    TMP DP  RH WIND       PRES   REMARKS
MEMPHIS INTL   PTSUNNY   69  45  41 S8        29.90F
NWS MEMPHIS      N/A     69 N/A N/A MISG        N/A
JACKSON        MOSUNNY   69  40  34 S9        29.93F
LEXINGTON      SUNNY     66  43  42 S6        29.95F
SAVANNAH       MOSUNNY   70  42  36 S8        29.96F
DYERSBURG      PTSUNNY   66  39  37 SE9       29.92F
UNION CITY     SUNNY     64  43  45 S9        29.91F
PARIS          SUNNY     64  40  41 S8        29.94F


...EASTERN ARKANSAS...

CITY           SKY/WX    TMP DP  RH WIND       PRES   REMARKS
JONESBORO      MOSUNNY   66  45  46 S14       29.86F
WEST MEMPHIS   MOSUNNY   68  49  50 S14       29.88F
BATESVILLE     PTSUNNY   70  45  40 S7        29.83R
NEWPORT        PTSUNNY   68  49  50 S18       29.85F
WALNUT RIDGE   MOSUNNY   68  43  40 S18       29.84F
BLYTHEVILLE    MOSUNNY   68  42  38 S16       29.88F
SEARCY         PTSUNNY   69  52  54 S12       29.86R
STUTTGART      PTSUNNY   70  52  52 S16       29.86F
PINE BLUFF     PTSUNNY   69  58  67 S8        29.87S
MONTICELLO     PTSUNNY   72  59  63 S5        29.89R


...NORTH MISSISSIPPI...

CITY           SKY/WX    TMP DP  RH WIND       PRES   REMARKS
TUPELO         MOSUNNY   68  47  46 S12       29.96F
OXFORD         MOSUNNY   66  45  45 S5        29.95S
OLIVE BRANCH   PTSUNNY   64  46  52 SE9       29.92F
TUNICA         PTSUNNY   68  46  45 S12G17    29.91F
CLARKSDALE       N/A     70  50  49 SE16      29.90F
CORINTH        MOSUNNY   68  43  40 S9        29.95F
GRENADA        SUNNY     70  48  46 SE9       29.94F
GREENWOOD      SUNNY     72  51  47 S12       29.93F
COLUMBUS       PTSUNNY   71  47  43 SE8       29.98S
STARKVILLE     FAIR      68  50  52 S7        29.97F
GOLDEN TRIANGL MOSUNNY   70  46  43 SE10      30.01R


...SOUTHEAST MISSOURI...

CITY           SKY/WX    TMP DP  RH WIND       PRES   REMARKS
DONIPHAN         N/A     66  42  42 S12         N/A
WEST PLAINS    MOSUNNY   66  41  40 S13G21    29.83R
POPLAR BLUFF   MOSUNNY   65  42  43 S10       29.85F
CAPE GIRARDEAU SUNNY     66  42  41 S13       29.87F


...NORTHWEST ALABAMA...

CITY           SKY/WX    TMP DP  RH WIND       PRES   REMARKS
MUSCLE SHOALS  SUNNY     69  45  41 SE7       29.99F


...MIDDLE TENNESSEE...

CITY           SKY/WX    TMP DP  RH WIND       PRES   REMARKS
NASHVILLE      PTSUNNY   65  40  39 S8        30.00F
CLARKSVILLE    SUNNY     62  40  44 S8        29.97F
DICKSON        SUNNY     66  36  32 S8        29.97F
COLUMBIA       SUNNY     68  52  56 S8        29.98S
LEWISBURG      SUNNY     69  40  34 S7        29.99F


...WESTERN KENTUCKY...

CITY           SKY/WX    TMP DP  RH WIND       PRES   REMARKS
PADUCAH        SUNNY     67  42  40 S9        29.91F
FORT CAMPBELL  SUNNY     63  39  40 S9        29.96F


...CENTRAL ARKANSAS...

CITY           SKY/WX    TMP DP  RH WIND       PRES   REMARKS
LITTLE ROCK    PTSUNNY   70  55  59 S5        29.86R


SKY/WX REPORTED AS FAIR MEANS FEW OR NO CLOUDS BELOW
12 THOUSAND FEET.




USA.gov is the U.S. government's official web portal to all federal, state and local government web resources and services.